Home > Weather > Aarau > Past weeks

Flag for Switzerland Weather for the Past 2 Weeks in Aarau, Aargau, Switzerland

Now
60 °F

Refreshingly cool.


Feels Like: 60 °F
Forecast: 44 / 72 °F
Wind: 1 mph from Southeast

Location: Wynau

Current Time: May 6, 2016 at 9:50:35 PM

Latest Report: May 6, 2016 at 9:00 PM


Visibility: N/A

Pressure: 29.87 "Hg

Humidity: 53%

Dew Point: 42 °F

Location of AarauLocation

Historic Weather in Aarau — Graph

°F

Aarau Temperature Yesterday

Maximum temperature yesterday: 67 °F (at 5:00 PM)
Minimum temperature yesterday: 38 °F (at 7:00 AM)
Average temperature yesterday: 52 °F

High & Low Weather Summary for the Past Weeks

 TemperatureHumidityPressure
High73 °F (May 6, 5:00 PM)100% (Apr 23, 4:00 PM)30.38 "Hg (Apr 23, 4:00 PM)
Low28 °F (Apr 28, 7:00 AM)26% (May 6, 5:00 PM)29.67 "Hg (Apr 26, 7:00 PM)
Average48 °F72%30.03 "Hg
* Reported Apr 21 8:00 PM — May 6 8:00 PM, Aarau, Weather by CustomWeather, © 2016

Note: Actual official high and low records may vary slightly from our data, if they occured in-between our weather recording intervals... More about our weather records

Advertising

Aarau Weather History for the Previous 24 Hours

Scroll right to see more
 ConditionsComfort  
Time TempWeatherWind HumidityBarometerVisibility
8:00 PM
Fri, May 6
64 °FMild.2 mph46%29.85 "HgN/A
7:00 PM72 °FMild.1 mph31%29.83 "HgN/A
6:00 PM72 °FMild.6 mph29%29.84 "HgN/A
5:00 PM73 °FMild.5 mph26%29.85 "HgN/A
4:00 PM72 °FMild.3 mph29%29.87 "HgN/A
3:00 PM71 °FMild.5 mph33%29.89 "HgN/A
2:00 PM70 °FMild.3 mph35%29.92 "HgN/A
1:00 PM66 °FMild.2 mph41%29.95 "HgN/A
12:00 PM64 °FMild.2 mph42%29.98 "HgN/A
11:00 AM60 °FRefreshingly cool.3 mph53%30.01 "HgN/A
10:00 AM55 °FCool.2 mph65%30.03 "HgN/A
9:00 AM50 °FCool.1 mph79%30.06 "HgN/A
8:00 AM43 °FQuite cool.1 mph89%30.09 "HgN/A
7:00 AM39 °FChilly.No wind97%30.11 "HgN/A
6:00 AM38 °FChilly.1 mph98%30.10 "HgN/A
5:00 AM39 °FChilly.1 mph98%30.10 "HgN/A
4:00 AM40 °FQuite cool.No wind97%30.09 "HgN/A
3:00 AM41 °FQuite cool.2 mph97%30.09 "HgN/A
2:00 AM42 °FQuite cool.2 mph96%30.09 "HgN/A
1:00 AM43 °FQuite cool.1 mph93%30.07 "HgN/A
12:00 AM45 °FCool.No wind86%30.06 "HgN/A
11:00 PM
Thu, May 5
47 °FCool.2 mph80%30.06 "HgN/A
10:00 PM51 °FCool.1 mph70%30.04 "HgN/A
9:00 PM54 °FCool.No wind61%30.02 "HgN/A
Weather by CustomWeather, © 2016

See weather overviewHow to use our weather pages